2021-08-05 00:09:29 r, 20.82m,0000000000Hz,0001143123c,0000002.481s, 032.5C,00002191
2021-08-05 00:19:31 r, 20.48m,0000000000Hz,0000840198c,0000001.823s, 032.5C,00002191
2021-08-05 00:29:30 r, 21.02m,0000000001Hz,0001378014c,0000002.990s, 032.5C,00002191
2021-08-05 00:39:29 r, 21.02m,0000000001Hz,0001383593c,0000003.003s, 032.5C,00002191
2021-08-05 00:49:30 r, 21.04m,0000000000Hz,0001403490c,0000003.046s, 032.2C,00002191
2021-08-05 00:59:32 r, 21.04m,0000000000Hz,0001407072c,0000003.054s, 031.9C,00002191
2021-08-05 01:09:29 r, 21.04m,0000000000Hz,0001407595c,0000003.055s, 031.5C,00002191
2021-08-05 01:19:31 r, 21.06m,0000000000Hz,0001422103c,0000003.086s, 031.2C,00002191
2021-08-05 01:29:30 r, 21.08m,0000000000Hz,0001443407c,0000003.132s, 031.2C,00002191
2021-08-05 01:39:29 r, 21.06m,0000000001Hz,0001437844c,0000003.120s, 030.9C,00002191
2021-08-05 01:49:31 r, 21.07m,0000000001Hz,0001457625c,0000003.163s, 030.9C,00002191
2021-08-05 01:59:30 r, 21.11m,0000000001Hz,0001505443c,0000003.267s, 030.6C,00002191
2021-08-05 02:09:29 r, 21.12m,0000000000Hz,0001520670c,0000003.300s, 030.6C,00002191
2021-08-05 02:19:32 r, 21.12m,0000000001Hz,0001508633c,0000003.274s, 030.6C,00002191
2021-08-05 02:29:30 r, 21.03m,0000000000Hz,0001402639c,0000003.044s, 030.2C,00002191
2021-08-05 02:39:29 r, 21.05m,0000000001Hz,0001426357c,0000003.095s, 030.2C,00002191
2021-08-05 02:49:30 r, 21.04m,0000000000Hz,0001415432c,0000003.072s, 029.9C,00002191
2021-08-05 02:59:31 r, 20.80m,0000000001Hz,0001131954c,0000002.456s, 029.9C,00002191
2021-08-05 03:09:29 r, 21.05m,0000000000Hz,0001432290c,0000003.108s, 029.9C,00002191
2021-08-05 03:19:31 r, 20.76m,0000000001Hz,0001094542c,0000002.375s, 029.9C,00002191
2021-08-05 03:29:30 r, 20.77m,0000000000Hz,0001104163c,0000002.396s, 029.9C,00002191
2021-08-05 03:39:29 r, 21.09m,0000000000Hz,0001481028c,0000003.214s, 030.2C,00002191
2021-08-05 03:49:29 r, 20.59m,0000000001Hz,0000934426c,0000002.028s, 030.2C,00002191
2021-08-05 03:59:32 r, 20.71m,0000000001Hz,0001042911c,0000002.263s, 030.2C,00002191
2021-08-05 04:09:29 r, 20.52m,0000000001Hz,0000883268c,0000001.917s, 030.9C,00002191
2021-08-05 04:19:29 r, 20.44m,0000000001Hz,0000808988c,0000001.756s, 031.2C,00002191
2021-08-05 04:29:30 r, 20.30m,0000000001Hz,0000710163c,0000001.541s, 031.5C,00002191
2021-08-05 04:39:30 r, 20.13m,0000000001Hz,0000611356c,0000001.327s, 031.9C,00002191
2021-08-05 04:49:29 r, 19.74m,0000000001Hz,0000426261c,0000000.925s, 031.9C,00002191
2021-08-05 04:59:31 r, 18.94m,0000000002Hz,0000204472c,0000000.444s, 031.9C,00002191
2021-08-05 05:09:29 r, 17.46m,0000000009Hz,0000052564c,0000000.114s, 031.9C,00002191
2021-08-05 05:19:29 r, 16.57m,0000000020Hz,0000023265c,0000000.050s, 031.9C,00002191
2021-08-05 05:29:32 r, 15.88m,0000000037Hz,0000012386c,0000000.027s, 031.9C,00002191
2021-08-05 05:39:29 r, 13.75m,0000000268Hz,0000000000c,0000000.000s, 031.9C,00002191
2021-08-05 05:49:29 r, 12.08m,0000001246Hz,0000000000c,0000000.000s, 031.9C,00002191
2021-08-05 05:59:32 r, 10.66m,0000004608Hz,0000000000c,0000000.000s, 031.9C,00002191
2021-08-05 06:09:29 r, 09.70m,0000011141Hz,0000000000c,0000000.000s, 031.9C,00002191
2021-08-05 06:19:29 r, 09.48m,0000013639Hz,0000000000c,0000000.000s, 031.9C,00002191
2021-08-05 06:29:30 r, 08.20m,0000044425Hz,0000000000c,0000000.000s, 031.5C,00002191
2021-08-05 06:39:29 r, 07.62m,0000076224Hz,0000000000c,0000000.000s, 031.5C,00002191
2021-08-05 06:49:29 r, 06.76m,0000167109Hz,0000000000c,0000000.000s, 031.5C,00002191
2021-08-05 06:59:30 r, 07.26m,0000105925Hz,0000000000c,0000000.000s, 031.5C,00002191
2021-08-05 07:09:29 r, 06.89m,0000148318Hz,0000000000c,0000000.000s, 031.2C,00002191
2021-08-05 07:19:29 r, 06.96m,0000138808Hz,0000000000c,0000000.000s, 031.2C,00002191
2021-08-05 07:29:30 r, 06.59m,0000195096Hz,0000000000c,0000000.000s, 031.2C,00002191
2021-08-05 07:39:30 r, 06.55m,0000202350Hz,0000000000c,0000000.000s, 031.2C,00002191
2021-08-05 07:49:29 r, 06.41m,0000230255Hz,0000000000c,0000000.000s, 031.5C,00002191
2021-08-05 07:59:32 r, 06.75m,0000168794Hz,0000000000c,0000000.000s, 031.5C,00002191
2021-08-05 08:09:30 r, 00.00m,0000563567Hz,0000000000c,0000000.000s, 031.9C,00002191
2021-08-05 08:19:29 r, 05.86m,0000384504Hz,0000000000c,0000000.000s, 031.9C,00002191
2021-08-05 08:29:30 r, 05.82m,0000398638Hz,0000000000c,0000000.000s, 032.2C,00002191
2021-08-05 08:39:31 r, 05.83m,0000392512Hz,0000000000c,0000000.000s, 031.9C,00002191
2021-08-05 08:49:29 r, 00.00m,0000473736Hz,0000000000c,0000000.000s, 032.2C,00002191
2021-08-05 08:59:31 r, 00.00m,0000596247Hz,0000000000c,0000000.000s, 032.2C,00002191
2021-08-05 09:09:30 r, 00.00m,0000596166Hz,0000000000c,0000000.000s, 032.5C,00002191
2021-08-05 09:19:29 r, 00.00m,0000596339Hz,0000000000c,0000000.000s, 032.2C,00002191
2021-08-05 09:29:30 r, 00.00m,0000405619Hz,0000000000c,0000000.000s, 031.9C,00002191
2021-08-05 09:39:32 r, 00.00m,0000596386Hz,0000000000c,0000000.000s, 031.5C,00002191
2021-08-05 09:49:29 r, 00.00m,0000596359Hz,0000000000c,0000000.000s, 031.5C,00002191
2021-08-05 09:59:32 r, 00.00m,0000596284Hz,0000000000c,0000000.000s, 031.5C,00002191
2021-08-05 10:09:30 r, 00.00m,0000596289Hz,0000000000c,0000000.000s, 031.5C,00002191
2021-08-05 10:19:29 r, 00.00m,0000596242Hz,0000000000c,0000000.000s, 031.5C,00002191
2021-08-05 10:29:32 r, 00.00m,0000596254Hz,0000000000c,0000000.000s, 032.2C,00002191
2021-08-05 10:39:30 r, 00.00m,0000596228Hz,0000000000c,0000000.000s, 032.2C,00002191
2021-08-05 10:49:29 r, 00.00m,0000596217Hz,0000000000c,0000000.000s, 032.2C,00002191
2021-08-05 10:59:30 r, 00.00m,0000596129Hz,0000000000c,0000000.000s, 032.2C,00002191
2021-08-05 11:09:30 r, 00.00m,0000596050Hz,0000000000c,0000000.000s, 033.1C,00002191
2021-08-05 11:19:29 r, 00.00m,0000596032Hz,0000000000c,0000000.000s, 033.1C,00002191
2021-08-05 11:29:31 r, 00.00m,0000595995Hz,0000000000c,0000000.000s, 033.5C,00002191
2021-08-05 11:39:30 r, 00.00m,0000595951Hz,0000000000c,0000000.000s, 033.8C,00002191
2021-08-05 11:49:29 r, 00.00m,0000595962Hz,0000000000c,0000000.000s, 034.4C,00002191
2021-08-05 11:59:32 r, 00.00m,0000595785Hz,0000000000c,0000000.000s, 034.8C,00002191
2021-08-05 12:09:30 r, 00.00m,0000595908Hz,0000000000c,0000000.000s, 034.1C,00002191
2021-08-05 12:19:29 r, 00.00m,0000595976Hz,0000000000c,0000000.000s, 034.1C,00002191
2021-08-05 12:29:32 r, 00.00m,0000595973Hz,0000000000c,0000000.000s, 034.4C,00002191
2021-08-05 12:39:30 r, 00.00m,0000595926Hz,0000000000c,0000000.000s, 034.1C,00002191
2021-08-05 12:49:29 r, 00.00m,0000595853Hz,0000000000c,0000000.000s, 034.8C,00002191
2021-08-05 12:59:30 r, 00.00m,0000595764Hz,0000000000c,0000000.000s, 035.4C,00002191
2021-08-05 13:09:31 r, 00.00m,0000595697Hz,0000000000c,0000000.000s, 036.0C,00002191
2021-08-05 13:19:29 r, 00.00m,0000595677Hz,0000000000c,0000000.000s, 037.0C,00002191
2021-08-05 13:29:31 r, 00.00m,0000595585Hz,0000000000c,0000000.000s, 037.0C,00002191
2021-08-05 13:39:30 r, 00.00m,0000595749Hz,0000000000c,0000000.000s, 036.7C,00002191
2021-08-05 13:49:29 r, 00.00m,0000595859Hz,0000000000c,0000000.000s, 036.0C,00002191
2021-08-05 13:59:30 r, 00.00m,0000595879Hz,0000000000c,0000000.000s, 035.4C,00002191
2021-08-05 14:09:33 r, 00.00m,0000595740Hz,0000000000c,0000000.000s, 036.0C,00002191
2021-08-05 14:19:29 r, 00.00m,0000595582Hz,0000000000c,0000000.000s, 036.7C,00002191
2021-08-05 14:29:32 r, 00.00m,0000595627Hz,0000000000c,0000000.000s, 037.0C,00002191
2021-08-05 14:39:30 r, 00.00m,0000595665Hz,0000000000c,0000000.000s, 037.0C,00002191
2021-08-05 14:49:29 r, 00.00m,0000595552Hz,0000000000c,0000000.000s, 037.3C,00002191
2021-08-05 14:59:30 r, 00.00m,0000595522Hz,0000000000c,0000000.000s, 037.3C,00002191
2021-08-05 15:09:31 r, 00.00m,0000595552Hz,0000000000c,0000000.000s, 037.3C,00002191
2021-08-05 15:19:29 r, 00.00m,0000595501Hz,0000000000c,0000000.000s, 037.7C,00002191
2021-08-05 15:29:31 r, 00.00m,0000595412Hz,0000000000c,0000000.000s, 037.7C,00002191
2021-08-05 15:39:30 r, 00.00m,0000595403Hz,0000000000c,0000000.000s, 037.7C,00002191
2021-08-05 15:49:29 r, 00.00m,0000595461Hz,0000000000c,0000000.000s, 037.7C,00002191
2021-08-05 15:59:30 r, 00.00m,0000595217Hz,0000000000c,0000000.000s, 038.6C,00002191
2021-08-05 16:09:32 r, 00.00m,0000595207Hz,0000000000c,0000000.000s, 039.3C,00002191
2021-08-05 16:19:29 r, 00.00m,0000595200Hz,0000000000c,0000000.000s, 039.6C,00002191
2021-08-05 16:29:32 r, 00.00m,0000595300Hz,0000000000c,0000000.000s, 039.0C,00002191
2021-08-05 16:39:30 r, 00.00m,0000595526Hz,0000000000c,0000000.000s, 037.0C,00002191
2021-08-05 16:49:29 r, 00.00m,0000595699Hz,0000000000c,0000000.000s, 036.0C,00002191
2021-08-05 16:59:32 r, 00.00m,0000595799Hz,0000000000c,0000000.000s, 035.7C,00002191
2021-08-05 17:09:30 r, 00.00m,0000595663Hz,0000000000c,0000000.000s, 036.7C,00002191
2021-08-05 17:19:29 r, 00.00m,0000595440Hz,0000000000c,0000000.000s, 037.3C,00002191
2021-08-05 17:29:30 r, 00.00m,0000595484Hz,0000000000c,0000000.000s, 037.7C,00002191
2021-08-05 17:39:31 r, 00.00m,0000595586Hz,0000000000c,0000000.000s, 037.3C,00002191
2021-08-05 17:49:30 r, 00.00m,0000595718Hz,0000000000c,0000000.000s, 036.4C,00002191
2021-08-05 17:59:31 r, 00.00m,0000595815Hz,0000000000c,0000000.000s, 035.4C,00002191
2021-08-05 18:09:30 r, 00.00m,0000595913Hz,0000000000c,0000000.000s, 035.1C,00002191
2021-08-05 18:19:29 r, 00.00m,0000595964Hz,0000000000c,0000000.000s, 034.8C,00002191
2021-08-05 18:29:32 r, 00.00m,0000595849Hz,0000000000c,0000000.000s, 035.1C,00002191
2021-08-05 18:39:30 r, 00.00m,0000595876Hz,0000000000c,0000000.000s, 035.1C,00002191
2021-08-05 18:49:29 r, 00.00m,0000595895Hz,0000000000c,0000000.000s, 034.4C,00002191
2021-08-05 18:59:32 r, 00.00m,0000595914Hz,0000000000c,0000000.000s, 034.4C,00002191
2021-08-05 19:09:30 r, 00.00m,0000595897Hz,0000000000c,0000000.000s, 034.1C,00002191
2021-08-05 19:19:29 r, 00.00m,0000595943Hz,0000000000c,0000000.000s, 034.1C,00002191
2021-08-05 19:29:30 r, 00.00m,0000595994Hz,0000000000c,0000000.000s, 033.8C,00002191
2021-08-05 19:39:31 r, 00.00m,0000595944Hz,0000000000c,0000000.000s, 033.8C,00002191
2021-08-05 19:49:29 r, 00.00m,0000596105Hz,0000000000c,0000000.000s, 033.5C,00002191
2021-08-05 19:59:31 r, 00.00m,0000596097Hz,0000000000c,0000000.000s, 032.8C,00002191
2021-08-05 20:09:30 r, 00.00m,0000527774Hz,0000000000c,0000000.000s, 032.2C,00002191
2021-08-05 20:19:30 r, 00.00m,0000409511Hz,0000000000c,0000000.000s, 031.5C,00002191
2021-08-05 20:29:30 r, 06.08m,0000312538Hz,0000000000c,0000000.000s, 030.9C,00002191
2021-08-05 20:39:32 r, 06.49m,0000214042Hz,0000000000c,0000000.000s, 030.2C,00002191
2021-08-05 20:49:30 r, 07.01m,0000133921Hz,0000000000c,0000000.000s, 029.9C,00002191
2021-08-05 20:59:30 r, 07.72m,0000069425Hz,0000000000c,0000000.000s, 029.3C,00002191
2021-08-05 21:09:30 r, 08.80m,0000025591Hz,0000000000c,0000000.000s, 028.6C,00002191
2021-08-05 21:19:30 r, 10.13m,0000007476Hz,0000000000c,0000000.000s, 028.3C,00002191
2021-08-05 21:29:30 r, 11.82m,0000001576Hz,0000000000c,0000000.000s, 028.0C,00002191
2021-08-05 21:39:30 r, 13.56m,0000000319Hz,0000000000c,0000000.000s, 027.7C,00002191
2021-08-05 21:49:30 r, 15.35m,0000000061Hz,0000007604c,0000000.017s, 027.3C,00002191
2021-08-05 21:59:30 r, 16.90m,0000000015Hz,0000031608c,0000000.069s, 027.0C,00002191
2021-08-05 22:09:32 r, 18.14m,0000000005Hz,0000098825c,0000000.214s, 027.0C,00002191
2021-08-05 22:19:30 r, 19.18m,0000000002Hz,0000259053c,0000000.562s, 026.7C,00002191
2021-08-05 22:29:30 r, 19.98m,0000000001Hz,0000537577c,0000001.167s, 026.4C,00002191
2021-08-05 22:39:32 r, 20.55m,0000000000Hz,0000895796c,0000001.944s, 026.4C,00002191
2021-08-05 22:49:30 r, 20.84m,0000000000Hz,0001174025c,0000002.548s, 026.1C,00002191
2021-08-05 22:59:30 r, 20.98m,0000000000Hz,0001326429c,0000002.879s, 026.1C,00002191
2021-08-05 23:09:30 r, 21.00m,0000000000Hz,0001357863c,0000002.947s, 026.1C,00002191
2021-08-05 23:19:30 r, 21.05m,0000000000Hz,0001414135c,0000003.069s, 025.7C,00002191
2021-08-05 23:29:30 r, 21.01m,0000000000Hz,0001364684c,0000002.962s, 025.4C,00002191
2021-08-05 23:39:30 r, 21.06m,0000000001Hz,0001422963c,0000003.088s, 025.1C,00002191
2021-08-05 23:49:30 r, 21.08m,0000000001Hz,0001447362c,0000003.141s, 024.8C,00002191
2021-08-05 23:59:30 r, 21.10m,0000000000Hz,0001477156c,0000003.206s, 024.4C,00002191
